Flag for Germany Weather past 2 weeks in Wismar, Mecklenburg-Western Pomerania, Germany

Now
75 °F

Overcast.


Feels Like: 77 °F
Forecast: 59 / 73 °F
Wind: 3 mph from Southeast

Location: Schwerin

Current Time: Aug 4, 2015 at 9:46:19 AM

Latest Report: Aug 4, 2015 at 9:00 AM


Visibility: 12 mi

Pressure: 29.91 "Hg

Humidity: 55%

Dew point: 58 °F

Location of WismarLocation

Historic Weather in Wismar — Graph

°F

Wismar temperature yesterday

Maximum temperature yesterday: 86 °F (at 5:00 PM)
Minimum temperature yesterday: 53 °F (at 4:00 AM)
Average temperature yesterday: 72 °F

Past Weeks' High & Low Weather Summary

 TemperatureHumidityPressure
High86 °F (Aug 3, 5:00 PM)99% (Jul 24, 5:00 AM)30.16 "Hg (Jul 24, 5:00 AM)
Low45 °F (Aug 1, 4:00 AM)30% (Aug 3, 5:00 PM)29.44 "Hg (Jul 25, 2:00 PM)
Average63 °F71%29.84 "Hg
* Reported Jul 20 8:00 AM — Aug 4 8:00 AM, Wismar, Weather by CustomWeather, © 2015

Note: Actual official high and low records may vary slightly from our data, if they occured in-between our weather recording intervals... More about our weather records

Advertising

Wismar weather history for previous 24 hours

 ConditionsComfort  
Time TempWeatherWind HumidityBarometerVisibility
8:00 AM
Tue, Aug 4
72 °FOvercast.2 mph60%29.93 "Hg8 mi
7:00 AM68 °FScattered clouds.2 mph66%29.94 "Hg9 mi
4:00 AM68 °FPassing clouds.3 mph67%29.97 "Hg11 mi
3:00 AM69 °FPassing clouds.3 mph67%29.98 "Hg11 mi
2:00 AM67 °FOvercast.3 mph71%29.99 "Hg14 mi
1:00 AM69 °FOvercast.3 mph64%30.01 "Hg13 mi
10:00 PM
Mon, Aug 3
72 °FOvercast.3 mph62%30.00 "Hg11 mi
9:00 PM77 °FScattered clouds.2 mph51%30.00 "Hg13 mi
8:00 PM83 °FPartly sunny.2 mph35%29.99 "Hg14 mi
7:00 PM86 °FOvercast.2 mph32%30.00 "Hg14 mi
6:00 PM86 °FPartly sunny.2 mph31%30.01 "Hg14 mi
5:00 PM86 °FOvercast.3 mph30%30.02 "Hg16 mi
4:00 PM86 °FOvercast.3 mph31%30.03 "Hg14 mi
3:00 PM85 °FScattered clouds.3 mph33%30.04 "Hg19 mi
2:00 PM82 °FSunny.3 mph36%30.06 "Hg14 mi
1:00 PM80 °FScattered clouds.3 mph42%30.08 "Hg14 mi
12:00 PM77 °FScattered clouds.3 mph46%30.09 "Hg19 mi
11:00 AM73 °FScattered clouds.3 mph50%30.11 "Hg14 mi
10:00 AM69 °FPartly sunny.3 mph55%30.11 "Hg18 mi
9:00 AM65 °FPartly sunny.3 mph60%30.11 "Hg14 mi
Weather by CustomWeather, © 2015

See weather overviewHow to use our weather pages